TimeMDT,TemperatureF,Dew PointF,Humidity,Sea Level PressureIn,VisibilityMPH,Wind Direction,Wind SpeedMPH,Gust SpeedMPH,PrecipitationIn,Events,Conditions,WindDirDegrees,DateUTC
12:53 AM,50.0,37.0,61,30.17,10.0,Variable,3.5,-,N/A,,Overcast,0,2013-10-13 06:53:00
1:53 AM,48.9,37.0,64,30.19,10.0,West,5.8,-,N/A,,Overcast,260,2013-10-13 07:53:00
2:53 AM,48.0,37.0,66,30.18,10.0,SSW,5.8,-,N/A,,Overcast,200,2013-10-13 08:53:00
3:53 AM,48.0,37.0,66,30.19,10.0,Variable,5.8,-,N/A,,Mostly Cloudy,0,2013-10-13 09:53:00
4:53 AM,45.0,37.0,74,30.19,10.0,SW,10.4,-,N/A,,Clear,220,2013-10-13 10:53:00
5:53 AM,45.0,37.0,74,30.19,10.0,SSE,10.4,-,N/A,,Mostly Cloudy,150,2013-10-13 11:53:00
6:53 AM,46.0,37.0,71,30.20,10.0,South,10.4,-,N/A,,Partly Cloudy,190,2013-10-13 12:53:00
7:53 AM,46.9,37.0,68,30.22,10.0,South,11.5,-,N/A,,Clear,180,2013-10-13 13:53:00
8:53 AM,50.0,37.0,61,30.20,10.0,SW,9.2,-,N/A,,Partly Cloudy,220,2013-10-13 14:53:00
9:53 AM,52.0,37.0,57,30.18,10.0,South,15.0,20.7,N/A,,Clear,190,2013-10-13 15:53:00
10:53 AM,57.9,39.9,51,30.15,10.0,SSW,13.8,23.0,N/A,,Clear,210,2013-10-13 16:53:00
11:53 AM,60.1,41.0,49,30.13,10.0,SSW,19.6,28.8,N/A,,Clear,200,2013-10-13 17:53:00
12:53 PM,63.0,43.0,48,30.09,10.0,SSW,18.4,26.5,N/A,,Clear,200,2013-10-13 18:53:00
1:53 PM,64.0,44.1,48,30.05,10.0,South,20.7,26.5,N/A,,Clear,180,2013-10-13 19:53:00
2:53 PM,64.0,45.0,50,30.03,10.0,South,18.4,27.6,N/A,,Clear,180,2013-10-13 20:53:00
3:53 PM,64.0,45.0,50,30.02,10.0,South,13.8,21.9,N/A,,Clear,170,2013-10-13 21:53:00
4:53 PM,63.0,44.1,50,30.01,10.0,SSE,15.0,-,N/A,,Clear,160,2013-10-13 22:53:00
5:53 PM,62.1,43.0,50,30.01,10.0,SSE,16.1,23.0,N/A,,Clear,160,2013-10-13 23:53:00
6:53 PM,57.9,42.1,56,30.03,10.0,ESE,4.6,-,N/A,,Clear,120,2013-10-14 00:53:00
7:53 PM,57.0,39.0,51,30.01,10.0,SSE,18.4,24.2,N/A,,Clear,160,2013-10-14 01:53:00
8:53 PM,55.9,37.9,51,30.01,10.0,SSE,23.0,29.9,N/A,,Clear,150,2013-10-14 02:53:00
9:53 PM,55.9,39.0,53,29.97,10.0,South,29.9,35.7,N/A,,Mostly Cloudy,170,2013-10-14 03:53:00
10:42 PM,57.2,39.2,51,29.94,10.0,SE,21.9,31.1,N/A,Thunderstorm,Thunderstorm,140,2013-10-14 04:42:00
10:53 PM,55.9,41.0,57,29.91,10.0,SSE,33.4,46.0,0.00,Rain-Thunderstorm,Light Rain,160,2013-10-14 04:53:00
11:06 PM,55.4,42.8,63,29.94,10.0,South,41.4,52.9,0.00,Rain,Light Rain,170,2013-10-14 05:06:00
11:46 PM,50.0,46.4,87,29.96,5.0,SSE,23.0,32.2,0.03,Rain-Thunderstorm,Light Thunderstorms and Rain,150,2013-10-14 05:46:00
11:53 PM,50.0,46.9,89,29.94,8.0,SE,17.3,29.9,0.04,Rain-Thunderstorm,Light Thunderstorms and Rain,140,2013-10-14 05:53:00